This demonstration page uses our WeatherBlox Daily Observations layout. Learn more.

Hourly Observations for May 7, 2016

Temp ( °F °C ) Dew Point ( °F °C ) Humidity (%) Winds ( mph kmh ) Pressure ( in mb ) Visibility ( mi km ) Precip ( " mm )
12:15 am 00:15 Clear 64 18 51 10.7 63 63 S 10 17 29.83 1010 10 16.0934 0 0
12:35 am 00:35 Clear 64 17.5 51 10.8 65 65 S 8 13 29.83 1010 10 16.0934 0 0
12:55 am 00:55 Clear 61 16.2 51 10.8 71 71 S 7 11 29.83 1010 10 16.0934 0 0
1:15 am 01:15 Clear 62 16.6 52 10.9 69 69 S 9 15 29.83 1010 10 16.0934 0 0
1:35 am 01:35 Clear 61 16.1 52 10.9 71 71 SSW 9 15 29.83 1010 10 16.0934 0 0
1:55 am 01:55 Clear 61 16 52 11 72 72 SSW 8 13 29.83 1010 10 16.0934 0 0
2:15 am 02:15 Clear 60 15.8 52 11 73 73 SSW 8 13 29.85 1011 10 16.0934 0 0
2:35 am 02:35 Clear 61 16 51 10.8 71 71 SSW 6 9 29.83 1010 10 16.0934 0 0
2:55 am 02:55 Clear 61 16.2 51 10.8 71 71 SW 6 9 29.83 1010 10 16.0934 0 0
3:15 am 03:15 Clear 61 16 51 10.7 71 71 SSW 6 9 29.83 1010 10 16.0934 0 0
3:35 am 03:35 Clear 61 16 51 10.6 71 71 SSW 8 13 29.83 1010 10 16.0934 0 0
3:55 am 03:55 Clear 60 15.8 51 10.5 71 71 SSW 7 11 29.83 1010 10 16.0934 0 0
4:15 am 04:15 Clear 59 15.2 51 10.5 74 74 SSW 7 11 29.83 1010 10 16.0934 0 0
4:35 am 04:35 Clear 58 14.7 51 10.3 75 75 SSW 8 13 29.85 1011 10 16.0934 0 0
4:55 am 04:55 Clear 59 15.2 50 10.2 72 72 SW 8 13 29.83 1010 10 16.0934 0 0
5:15 am 05:15 Clear 59 15.1 51 10.3 73 73 WSW 6 9 29.83 1010 10 16.0934 0 0
5:35 am 05:35 Clear 62 16.8 50 10.2 65 65 NW 7 11 29.85 1011 10 16.0934 0 0
5:55 am 05:55 Clear 60 15.6 50 10.2 70 70 NNW 5 7 29.85 1011 10 16.0934 0 0
6:15 am 06:15 Clear 59 15.2 51 10.3 73 73 N 3 6 29.85 1011 10 16.0934 0 0
6:35 am 06:35 Sunny 58 14.2 50 10.1 77 77 Calm 29.88 1012 10 16.0934 0 0
6:55 am 06:55 Sunny 57 13.9 51 10.3 79 79 Calm 29.88 1012 10 16.0934 0 0
7:15 am 07:15 Sunny 57 14 51 10.5 80 80 SE 3 6 29.88 1012 10 16.0934 0 0
7:35 am 07:35 Sunny 58 14.5 52 11.3 81 81 SE 6 9 29.88 1012 10 16.0934 0 0
7:55 am 07:55 Sunny 62 16.4 53 11.7 74 74 SE 5 7 29.85 1011 10 16.0934 0 0
8:15 am 08:15 Sunny 63 17 55 12.5 75 75 SSE 6 9 29.85 1011 10 16.0934 0 0
8:35 am 08:35 Sunny 64 17.8 55 12.6 72 72 Calm 29.85 1011 10 16.0934 0 0
8:55 am 08:55 Sunny 64 18 55 12.8 72 72 Calm 29.85 1011 10 16.0934 0 0
9:15 am 09:15 Sunny 67 19.4 55 12.8 66 66 ENE 5 7 29.83 1010 10 16.0934 0 0
9:35 am 09:35 Sunny 65 18.3 54 12.4 69 69 NNE 7 11 29.85 1011 10 16.0934 0 0
9:55 am 09:55 Sunny 66 18.9 55 12.8 68 68 NE 7 11 29.83 1010 10 16.0934 0 0
10:15 am 10:15 Sunny 67 19.6 56 13.2 67 67 NE 8 13 29.83 1010 10 16.0934 0 0
10:35 am 10:35 Sunny 67 19.6 55 12.8 65 65 NE 9 15 29.83 1010 10 16.0934 0 0
10:55 am 10:55 Sunny 70 21 55 12.9 60 60 ENE 10 17 29.83 1010 10 16.0934 0 0
11:15 am 11:15 Sunny 70 21.3 56 13.2 60 60 NE 10 17 29.83 1010 10 16.0934 0 0
11:35 am 11:35 Sunny 72 22 56 13.4 58 58 NE 12 19 29.83 1010 10 16.0934 0 0
11:55 am 11:55 Sunny 73 22.7 56 13.3 55 55 NE 15 24 29.77 1008 10 16.0934 0 0
12:15 pm 12:15 Sunny 73 22.9 56 13.3 55 55 E 15 24 29.77 1008 10 16.0934 0 0
12:35 pm 12:35 Sunny 74 23.6 56 13.1 52 52 ENE 20 31 29.77 1008 10 16.0934 0 0
12:55 pm 12:55 Sunny 74 23.6 55 12.8 51 51 ENE 21 33 29.77 1008 10 16.0934 0 0
1:15 pm 13:15 Sunny 75 24.1 55 12.9 50 50 ENE 22 35 29.77 1008 10 16.0934 0 0
1:35 pm 13:35 Sunny 75 24 55 12.8 50 50 ENE 21 33 29.77 1008 10 16.0934 0 0
1:55 pm 13:55 Sunny 75 24 54 12.2 48 48 ENE 24 39 29.74 1007 10 16.0934 0 0
2:15 pm 14:15 Sunny with Nearby Thunderstorms 75 24.1 54 12.3 48 48 ENE 21 33 29.74 1007 10 16.0934 0 0
2:35 pm 14:35 Partly Cloudy with Nearby Thunderstorms 75 23.9 53 11.7 46 46 E 17 28 29.77 1008 10 16.0934 0 0
2:55 pm 14:55 Partly Cloudy 76 24.4 48 9.1 38 38 SSW 12 19 29.77 1008 10 16.0934 0 0
3:15 pm 15:15 Sunny 74 23.5 50 10.2 43 43 SSW 3 6 29.77 1008 10 16.0934 0 0
3:35 pm 15:35 Sunny 73 22.7 54 12.3 52 52 Calm 29.74 1007 10 16.0934 0 0
3:55 pm 15:55 Sunny 74 23.3 53 11.7 48 48 E 7 11 29.71 1006 10 16.0934 0 0
4:15 pm 16:15 Sunny with Nearby Thunderstorms 75 24 51 10.3 42 42 E 6 9 29.71 1006 10 16.0934 0 0
4:35 pm 16:35 Partly Cloudy 74 23.5 50 9.9 42 42 E 7 11 29.71 1006 10 16.0934 0 0
4:55 pm 16:55 Partly Cloudy 74 23.2 51 10.3 44 44 ENE 5 7 29.71 1006 10 16.0934 0 0
5:15 pm 17:15 Partly Cloudy 73 23 53 11.7 49 49 ENE 12 19 29.68 1005 10 16.0934 0 0
5:35 pm 17:35 Partly Cloudy 75 24 51 10.7 43 43 ESE 12 19 29.68 1005 10 16.0934 0 0
5:55 pm 17:55 Sunny 76 24.3 51 10.5 42 42 ESE 16 26 29.68 1005 10 16.0934 0 0
6:15 pm 18:15 Partly Cloudy with Nearby Thunderstorms 75 24.1 51 10.8 43 43 ESE 20 31 29.68 1005 10 16.0934 0 0
6:35 pm 18:35 Partly Cloudy with Nearby Thunderstorms 75 24 52 11 44 44 ESE 15 24 29.68 1005 10 16.0934 0 0
6:55 pm 18:55 Partly Cloudy with Nearby Thunderstorms 74 23.6 53 11.5 47 47 ESE 16 26 29.68 1005 10 16.0934 0 0
7:15 pm 19:15 Mostly Cloudy 72 22.3 52 11.2 50 50 E 14 22 29.68 1005 7 11.26538 0 0
7:35 pm 19:35 Cloudy 70 21 53 11.4 54 54 ENE 22 35 29.68 1005 7 11.26538 0 0
7:55 pm 19:55 Cloudy with Haze 67 19.4 49 9.4 53 53 ENE 22 35 29.71 1006 4 6.43736 0 0
8:15 pm 20:15 Mostly Cloudy with Haze 65 18.6 48 9.1 54 54 ENE 18 30 29.71 1006 5 8.0467 0 0
8:35 pm 20:35 Hazy 65 18.1 48 9.1 56 56 E 16 26 29.71 1006 5 8.0467 0 0
8:55 pm 20:55 Hazy 64 17.9 47 8.5 54 54 E 15 24 29.71 1006 5 8.0467 0 0
9:15 pm 21:15 Hazy 64 17.7 47 8.4 55 55 E 17 28 29.71 1006 5 8.0467 0 0
9:35 pm 21:35 Partly Cloudy with Nearby Thunderstorms 64 17.7 47 8.1 54 54 E 15 24 29.74 1007 5 8.0467 0 0
9:55 pm 21:55 Mostly Cloudy with Haze 63 17.1 47 8.3 56 56 E 17 28 29.77 1008 5 8.0467 0 0
10:15 pm 22:15 Cloudy with Haze 63 17.1 46 7.8 55 55 E 18 30 29.74 1007 5 8.0467 0 0
10:35 pm 22:35 Mostly Cloudy with Haze 61 16 47 8.5 61 61 E 18 30 29.77 1008 5 8.0467 0 0
10:55 pm 22:55 Partly Cloudy with Nearby Thunderstorms 60 15.8 46 7.9 60 60 E 16 26 29.77 1008 7 11.26538 0 0
11:15 pm 23:15 Clear 60 15.6 46 7.7 60 60 E 29 46 29.74 1007 7 11.26538 0 0
11:35 pm 23:35 Clear 60 15.6 46 7.6 59 59 E 14 22 29.77 1008 7 11.26538 0 0
11:55 pm 23:55 Clear 60 15.3 46 7.5 60 60 ENE 14 22 29.77 1008 7 11.26538 0 0

Powered by AerisWeather